Elephant Butte, NM

2:00 AM MDT on September 29, 2016 (GMT -0600)
Truth Or Consequences Municipal

Weather History for KTCS - October, 2012

Change the Weather History Date:

Wednesday, October 31, 2012

  Actual Average Record
Temperature  
Mean Temperature 61 °F -  
Max Temperature 78 °F 69 °F 82 °F (1997)
Min Temperature 43 °F 42 °F 36 °F (1999)
Degree Days  
Heating Degree Days 4    
Month to date heating degree days 73  
Since 1 July heating degree days 86  
Cooling Degree Days 0    
Month to date cooling degree days 82  
Year to date cooling degree days 2107  
Growing Degree Days 10 (Base 50)    
Moisture  
Dew Point 16 °F    
Average Humidity 19    
Maximum Humidity 28    
Minimum Humidity 9    
Precipitation  
Precipitation 0.00 in - 0.58 in (1998)
Month to date precipitation 0.02  
Year to date precipitation 2.59  
Sea Level Pressure  
Sea Level Pressure 29.97 in    
Wind  
Wind Speed 5 mph (NNW)    
Max Wind Speed 12 mph    
Max Gust Speed 17 mph    
Visibility 10 miles    
Events      
T = Trace of Precipitation, MM = Missing Value Source: NWS Daily Summary

Daily Weather History Graph

Daily Weather History Graph

Search for Another Location

Airport or City:

Trip Planner

Search our weather history database for the weather conditions in past years. The results will help you decide how hot, cold, wet, or windy it might be!

Date:

Astronomy

Oct. 31, 2012 Rise Set
Actual Time 7:27 AM MDT 6:17 PM MDT
Civil Twilight 7:01 AM MDT 6:43 PM MDT
Nautical Twilight 6:32 AM MDT 7:12 PM MDT
Astronomical Twilight 6:03 AM MDT 7:41 PM MDT
Moon 7:37 PM MDT (10/31) 9:05 AM MDT (10/31)
Length of Visible Light 11h 41m
Length of Day
10h 50m
Full, 97% of the Moon is Illuminated
Oct 31
Full
Nov 6
Last Quarter
Nov 13
New
Nov 20
First Quarter
Nov 28
Full

Hourly Weather History & Observations

Time (MDT) Temp. Dew Point Humidity Pressure Visibility Wind Dir Wind Speed Gust Speed Precip Events Conditions
12:53 AM 53.1 °F 14.0 °F 21% 29.96 in 10.0 mi WNW 8.1 mph - N/A   Clear
1:53 AM 53.1 °F 15.1 °F 22% 29.94 in 10.0 mi WNW 6.9 mph - N/A   Clear
2:53 AM 50.0 °F 15.1 °F 25% 29.96 in 10.0 mi Calm Calm - N/A   Clear
3:53 AM 50.0 °F 15.1 °F 25% 29.96 in 10.0 mi NW 5.8 mph - N/A   Clear
4:53 AM 50.0 °F 15.1 °F 25% 29.96 in 10.0 mi NW 6.9 mph - N/A   Clear
5:53 AM 50.0 °F 15.1 °F 25% 29.98 in 10.0 mi NNW 4.6 mph - N/A   Clear
6:53 AM 46.9 °F 15.1 °F 28% 30.00 in 10.0 mi NW 4.6 mph - N/A   Clear
7:53 AM 48.0 °F 15.1 °F 27% 30.03 in 10.0 mi NNW 8.1 mph - N/A   Clear
8:53 AM 57.0 °F 17.1 °F 21% 30.04 in 10.0 mi NNW 4.6 mph - N/A   Clear
9:53 AM 62.1 °F 18.0 °F 18% 30.06 in 10.0 mi North 4.6 mph - N/A   Clear
10:53 AM 64.9 °F 18.0 °F 16% 30.04 in 10.0 mi NNE 6.9 mph - N/A   Clear
11:53 AM 70.0 °F 18.0 °F 14% 30.03 in 10.0 mi ENE 5.8 mph - N/A   Clear
12:53 PM 73.0 °F 19.0 °F 13% 29.98 in 10.0 mi NE 5.8 mph - N/A   Clear
1:53 PM 73.9 °F 19.0 °F 13% 29.94 in 10.0 mi South 3.5 mph - N/A   Clear
2:53 PM 75.0 °F 18.0 °F 12% 29.92 in 10.0 mi Calm Calm - N/A   Clear
3:53 PM 77.0 °F 18.0 °F 11% 29.90 in 10.0 mi ESE 8.1 mph - N/A   Clear
4:53 PM 77.0 °F 16.0 °F 10% 29.90 in 10.0 mi Variable 6.9 mph - N/A   Clear
5:53 PM 73.9 °F 16.0 °F 11% 29.91 in 10.0 mi SE 3.5 mph - N/A   Clear
6:53 PM 70.0 °F 14.0 °F 12% 29.94 in 10.0 mi Calm Calm - N/A   Clear
7:53 PM 66.0 °F 15.1 °F 14% 29.96 in 10.0 mi South 5.8 mph - N/A   Clear
8:53 PM 66.0 °F 14.0 °F 13% 29.94 in 10.0 mi SSW 5.8 mph - N/A   Clear
9:53 PM 60.1 °F 12.9 °F 16% 29.96 in 10.0 mi ESE 4.6 mph - N/A   Clear
10:53 PM 52.0 °F 10.0 °F 19% 29.98 in 10.0 mi WNW 6.9 mph - N/A   Clear
11:53 PM 51.1 °F 12.0 °F 21% 29.97 in 10.0 mi NW 8.1 mph - N/A   Clear